Время (UTC), дата Ветер
(°,м/с) 
Видим.   Явления Облачность Т
(°С)
Тd
(°С)
f(%) Тe
(°С)
Pmin
(гПа)
dP
(гПа)
Po
(мм)
O2
(г/м3)
Тmin Tmax R s Состояние
почвы
00 20.08.14 010 (С) 1000 м    9/9 1000 м кучево-дожд. 
[Cb cap]
+20.4 +13.6 65 +26  1016.6  0.4  760  282           
03 20.08.14 тихо ()   10 км    8/6 1000 м средняя, верхняя 
[Sc diur, vesp|Ac trans|Cc]
+18.8 +13.7 72 +25  1017.4  0.8  760  284  +18.6         
06 20.08.14 020 (С) 10 км    3/0 верхняя 
[Ci fib]
+24 +13.7 53 +30  1018.2  0.9  761  279           
09 20.08.14 020 (С) 10 км    1/0 верхняя 
[Ci fib]
+28.2 +10.7 34 +30  1017.6  -0.6  761  276           
12 20.08.14 010 (С) 10 км    3/3 1500 м 
[Sc diur, vesp]
+30.6 +9.3 27 +31  1016.2  -1.3  760  274           
15 20.08.14 060 (СВ) 10 км    1/1 1500 м 
[Sc diur, vesp]
+29.2 +10.6 32 +31  1015.4  -0.9  759  274    +31       
18 20.08.14 тихо ()   10 км    ясно 
+24 +14.7 56 +32  1016.1  0.7  759  278           
21 20.08.14 тихо ()   10 км    ясно 
+22.2 +10.2 46 +23  1015.8  -0.3  759  281           
00 21.08.14 тихо ()   10 км    ясно 
+19.5 +11.5 60 +22  1015.8  759  283           
03 21.08.14 тихо ()   10 км    4/1 1500 м средняя 
[Sc|Ac trans]
+18.8 +11.8 64 +22  1016.3  0.5  760  284  +18.7        сухая 
06 21.08.14 110 (В) 10 км    5/0 средняя 
[Ac trans]
+26.2 +14.1 47 +33  1016.3  760  276           
09 21.08.14 070 (В) 10 км    ясно 
+30.7 +11.3 30 +33  1015.5  -0.7  759  273           
12 21.08.14 010 (С) 10 км    ясно 
+32.1 +11.8 29 +35  1014.2  -1.3  758  271           
15 21.08.14 100 (В) 10 км    ясно 
+31 +13.1 34 +36  1013.2  -1  757  272    +33.3       
18 21.08.14 320 (СЗ) 10 км    ясно 
+26.9 +10.8 37 +29  1013.8  0.6  758  276           
21 21.08.14 тихо ()   10 км    ясно 
+24.8 +9.7 38 +25  1013.6  -0.3  758  278           
00 22.08.14 250 (З) 10 км    ясно 
+21.3 +13.7 62 +28  1013.5  0.1  758  280           
03 22.08.14 230 (ЮЗ) 10 км    5/0 средняя 
[Ac trans]
+20.3 +14.5 69 +28  1014.1  0.6  758  281  +20.1        сухая 
06 22.08.14 240 (ЮЗ) 10 км    ясно 
+26 +12.5 43 +30  1014.4  0.3  758  277           
09 22.08.14 260 (З) 10 км    5/1 1000 м средняя 
[Cu hum|Ac cast]
+30.8 +13.7 35 +37  1013.9  -0.5  758  272           
12 22.08.14 260 (З) 10 км    5/0 средняя, верхняя 
[Ac cast|Cc]
+31.8 +11.3 28 +35  1013.2  -0.7  757  271           
15 22.08.14 300 (СЗ) 10 км    1/0 средняя 
[Ac trans]
+31.2 +11.2 29 +34  1013.3  0.2  757  272    +33       
18 22.08.14 300 (СЗ) 10 км    ясно 
+26 +11.8 41 +29  1014.8  1.4  759  277           
21 22.08.14 250 (З) 10 км    ясно 
+22.8 +15.3 63 +32  1015.4  0.5  759  279           
00 23.08.14 220 (ЮЗ) 10 км    ясно 
+21.2 +16.6 75 +32  1015.2  -0.2  759  280           
03 23.08.14 230 (ЮЗ) 10 км    ясно 
+19.7 +15.5 77 +30  1015.5  0.3  759  282  +19.6        сухая 
06 23.08.14 250 (З) 10 км    ясно 
+26.6 +17.6 58 +40  1015.8  0.3  759  275           
09 23.08.14 300 (СЗ) 10 км    6/5 1000 м верхняя 
[Cu med, cong|Ci fib]
+30.7 +14.5 37 +38  1015.1  -0.6  759  272           
12 23.08.14 310 (СЗ) 10 км    8/6 1000 м средняя, верхняя 
[Cu med, cong|Ac lent|Cc]
+32.5 +12.6 30 +37  1014.6  -0.5  758  271           
15 23.08.14 320 (СЗ) 10 км    4/0 средняя, верхняя 
[Ac cast|Cc]
+27.9 +15.4 47 +37  1015.2  0.6  759  274    +32.8       
18 23.08.14 300 (СЗ) 10 км    4/0 средняя, верхняя 
[Ac trans|Cc]
+22.4 +12.4 53 +27  1016.6  1.3  760  281           
21 23.08.14 300 (СЗ) 10 км    4/0 средняя, верхняя 
[Ac trans|Cc]
+19.8 +13.2 66 +26  1016.4  -0.3  760  283           
00 24.08.14 200 (Ю) 10 км    6/0 средняя, верхняя 
[Ac trans|Cc]
+17.2 +13.6 79 +25  1016.3  0.1  760  285           
03 24.08.14 тихо ()   10 км    3/0 средняя, верхняя 
[Ac trans|Cc]
+16.5 +13.6 83 +23  1015.9  -0.5  759  286  +16.5         
06 24.08.14 070 (В) 10 км    1/0 верхняя 
[Ci fib]
+24.2 +13 50 +29  1014.7  -1.1  758  278           
09 24.08.14 050 (СВ) 10 км    3/0 верхняя 
[Ci fib]
+28.2 +9.3 31 +28  1013.1  -1.5  757  275           
12 24.08.14 060 (СВ) 10 км    3/0 верхняя 
[Ci fib]
+31.3 +11.7 30 +35  1011.3  -1.7  756  271           
15 24.08.14 090 (В) 10 км    1/0 средняя 
[Ac trans]
+31.1 +11.8 31 +35  1010.1  -1.2  755  271    +31.9       
18 24.08.14 тихо ()   10 км    1/0 средняя 
[Ac trans]
+26.1 +15.4 52 +35  1009.9  -0.2  755  274           
21 24.08.14 тихо ()   10 км    1/0 средняя 
[Ac trans]
+24.9 +12.3 45 +29  1010.2  0.2  755  277           
00 25.08.14 260 (З) 10 км    ясно 
+21.6 +16.6 73 +33  1010.7  0.5  755  278           
03 25.08.14 240 (ЮЗ) 10 км    1/0 средняя 
[Ac trans]
+21.1 +16.8 76 +33  1012  1.3  756  279  +20.8        сухая 
06 25.08.14 340 (С) 10 км    ясно 
+25.2 +16.3 58 +36  1012.9  757  276           
09 25.08.14 300 (СЗ) 10 км    ясно 
+31 +14.8 37 +39  1012.8  757  271           
12 25.08.14 300 (СЗ) 10 км    ясно 
+34 +12.6 27 +39  1012.2  -0.6  757  269           
15 25.08.14 300 (СЗ) 10 км    6/6 1000 м 
[Sc diur, vesp]
+32.1 +10 26 +33  1012.3  -0.1  757  271    +34.5       
18 25.08.14 310 (СЗ) 10 км    3/0 средняя 
[Ac trans]
+26.7 +14 46 +33  1014  1.7  758  275           
21 25.08.14 280 (З) 10 км    ясно 
+23.7 +17 66 +36  1014.6  0.5  758  277           
00 26.08.14 220 (ЮЗ) 10 км    3/0 средняя 
[Ac cast]
+22.1 +18.6 81 +37  1014.8  0.2  758  278           
03 26.08.14 230 (ЮЗ) 10 км    6/0 средняя 
[Ac trans]
+21.2 +18.4 84 +36  1015.2  0.4  759  279  +20.8        сухая 
06 26.08.14 300 (СЗ) 10 км    3/0 средняя, верхняя 
[Ac trans|Cc]
+25.2 +18 64 +39  1016  0.9  759  276           
09 26.08.14 300 (СЗ) 10 км    3/1 1000 м средняя 
[Cu hum|Ac trans]
+30.3 +13.4 36 +36  1015.7  -0.3  759  273           
12 26.08.14 360 (С) 10 км    1/0 средняя 
[Ac trans]
+32.4 +12.1 29 +36  1014.4  -0.3  758  271           
15 26.08.14 320 (СЗ) 10 км    3/0 средняя 
[Ac trans]
+30.4 +10.7 30 +32  1013.8  -0.6  758  273    +32.6       
18 26.08.14 320 (СЗ) 10 км    8/1 1000 м средняя, верхняя 
[Cu hum|Ac trans|Ci fib]
+24.6 +9.4 38 +25  1014.4  0.5  758  279           
21 26.08.14 тихо ()   10 км    6/1 1000 м средняя, верхняя 
[Cu hum|Ac trans|Ci fib]
+22.1 +7.3 38 +22  1013.9  -0.5  758  281           
00 27.08.14 290 (З) 10 км    6/0 средняя, верхняя 
[Ac trans|Ci fib]
+20.5 +9.3 49 +21  1012.8  -1.1  757  282           
03 27.08.14 тихо ()   10 км    8/5 1000 м средняя, верхняя 
[Sc diur, vesp|Ac trans|Cc]
+19 +10.5 58 +21  1012.3  -0.5  757  283  +18.8        сухая 
06 27.08.14 230 (ЮЗ) 10 км    3/0 верхняя 
[Ci fib]
+25 +8.4 35 +25  1012.3  757  278           
09 27.08.14 тихо ()   10 км    1/0 средняя 
[Ac trans]
+31.6 +13 32 +37  1010.9  -1.3  756  270           
12 27.08.14 280 (З) 10 км    3/0 средняя 
[Ac trans]
+33.9 +14.9 32 +42  1009.1  -1.7  754  267           
15 27.08.14 310 (СЗ) 10 км    1/0 средняя 
[Ac trans]
+32.9 +15.3 35 +42  1007.8  -1.3  753  268    +34.5       
18 27.08.14 330 (СЗ) 10 км    6/0 средняя, верхняя 
[Ac trans|Ci fib]
+27.9 +12.4 38 +32  1008.3  0.4  754  273           
21 27.08.14 270 (З) 10 км    5/0 средняя 
[Ac trans]
+24.5 +11.2 43 +27  1008.1  -0.3  753  277           
00 28.08.14 280 (З) 10 км    4/0 верхняя 
[Ci fib]
+21.8 +12.8 57 +27  1007.9  -0.2  753  279           
03 28.08.14 210 (ЮЗ) 10 км    6/0 средняя, верхняя 
[Ac trans|Ci fib]
+20.1 +14.7 71 +28  1008.3  0.4  754  280  +20.1        сухая 
06 28.08.14 340 (С) 10 км    ясно 
+27.3 +11.5 37 +30  1008.4  0.1  754  274           
09 28.08.14 240 (ЮЗ) 10 км    ясно 
+31.4 +11.7 30 +35  1007.7  -0.6  753  270           
12 28.08.14 260 (З) 10 км    3/1 1000 м средняя 
[Cu hum|Ac cast]
+33.4 +14.4 32 +41  1007.1  -0.5  753  267           
15 28.08.14 280 (З) 10 км    3/0 средняя 
[Ac cast]
+31.2 +9.9 27 +32  1007.8  0.6  753  271    +33.9       
18 28.08.14 290 (З) 3{10}  10 км    ясно 
+26.1 +16.9 57 +38  1010.1  2.2  755  274           
21 28.08.14 240 (ЮЗ) 10 км    4/0 средняя 
[Ac trans]
+23.6 +18.4 73 +38  1012.3  2.2  757  276           
00 29.08.14 280 (З) 10 км    ясно 
+20.9 +15.8 73 +31  1014.3  1.9  758  280           
03 29.08.14 310 (СЗ) 10 км    3/0 средняя 
[Ac cast]
+18 +13.6 75 +25  1015.8  1.5  759  284  +18        сухая 
06 29.08.14 350 (С) 10 км    3/0 средняя 
[Ac trans]
+21.3 +9.8 48 +22  1017  1.2  760  282  +17.9         
09 29.08.14 320 (СЗ) 10 км    1/0 верхняя 
[Ci fib]
+24.5 +7.8 34 +25  1016.6  -0.3  760  280           
12 29.08.14 020 (С) 10 км    ясно 
+27.2 +7.4 29 +27  1015.8  -0.9  759  277           
15 29.08.14 300 (СЗ) 10 км    ясно 
+25.4 +7 31 +25  1015.7  759  279    +27.9       
18 29.08.14 310 (СЗ) 10 км    ясно 
+20 +9.9 52 +21  1017.9  2.1  761  284           
21 29.08.14 300 (СЗ) 10 км    ясно 
+18 +11.5 66 +22  1018.7  0.7  761  286           
00 30.08.14 190 (Ю) 10 км    ясно 
+15.3 +11.9 80 +20  1019.6  0.9  762  288           
03 30.08.14 тихо ()   10 км    ясно 
+14.1 +11.4 84 +17  1020.4  0.8  763  290  +14        сухая 
06 30.08.14 080 (В) 10 км    ясно 
+21.7 +9.3 45 +22  1020.8  0.4  763  283           
09 30.08.14 020 (С) 10 км    ясно 
+26.9 +5.5 25 +27  1020.1  -0.7  762  279           
12 30.08.14 020 (С) 10 км    ясно 
+28.8 +4.2 21 +29  1018.5  -1.6  761  277           
15 30.08.14 020 (С) 10 км    ясно 
+27.1 +2 20 +27  1017.9  -0.7  761  279    +28.9       
18 30.08.14 350 (С) 10 км    6/6 1000 м 
[Sc diur, vesp]
+21.9 +5.7 35 +22  1018.4  0.5  761  283           
21 30.08.14 020 (С) 10 км    6/6 1000 м 
[Sc diur, vesp]
+19.5 +4.1 36 +21  1018.8  0.3  761  286           
00 31.08.14 030 (СВ) 10 км    6/6 1000 м 
[Sc diur, vesp]
+17.1 +4.4 43 +18  1018.8  761  288           
03 31.08.14 010 (С) 10 км    1/0 
[]
+6.6   1018.4  -0.4  761    +14.9         
06 31.08.14 060 (СВ) 10 км    ясно 
+21.4 +6.5 38 +21  1017.9  -0.4  761  283  +14.8         
09 31.08.14 070 (В) 10 км    ясно 
+28.3 +8.7 29 +28  1016.2  -1.7  760  276           
12 31.08.14 070 (В) 10 км    ясно 
+30.9 +7.5 23 +31  1014.2  -1.9  758  273           
15 31.08.14 050 (СВ) 10 км    3/1 1500 м средняя 
[Sc diur, vesp|Ac trans]
+30.1 +7.8 25 +30  1012.8  -1.4  757  273    +31.5       
18 31.08.14 030 (СВ) 10 км    3/0 средняя 
[Ac trans]
+25.9 +5.5 27 +26  1012.6  -0.2  757  278           
21 31.08.14 030 (СВ) 10 км    1/0 средняя 
[Ac trans]
+23.4 +5.1 31 +23  1012  -0.6  756  280           
00 01.09.14 040 (СВ) 10 км    3/0 средняя 
[Ac trans]
+21 +4.5 34 +21  1011.9  0.1  756  282           
03 01.09.14 060 (СВ) 10 км    5/5 1000 м 
[Sc]
+20.1 +8.7 48 +20  1011.9  756  282  +19.8        сухая 
Время (UTC), дата Ветер
(°,м/с) 
Видим.   Явления Облачность Т
(°С)
Тd
(°С)
f(%) Тe
(°С)
Pmin
(гПа)
dP
(гПа)
Po
(мм)
O2
(г/м3)
Тmin Tmax R s Состояние
почвы